Time,TemperatureF,DewpointF,PressureIn,WindDirection,WindDirectionDegrees,WindSpeedMPH,WindSpeedGustMPH,Humidity,HourlyPrecipIn,Conditions,Clouds,dailyrainin,SoftwareType,DateUTC
2013-01-10 00:22:00,45.0,27.0,29.92,SE,140,14.0,-999.0,50,0.00,,,-99.99,,2013-01-10 08:22:00,
2013-01-10 00:32:00,45.0,27.0,29.92,SE,140,14.0,-999.0,50,0.00,,,-99.99,,2013-01-10 08:32:00,
2013-01-10 00:42:00,45.0,27.0,29.92,SE,140,14.0,-999.0,50,0.00,,,-99.99,,2013-01-10 08:42:00,
2013-01-10 00:52:00,45.0,27.0,29.92,SE,140,14.0,-999.0,50,0.00,,,-99.99,,2013-01-10 08:52:00,
2013-01-10 01:22:00,42.0,31.0,29.87,North,10,5.0,-999.0,65,0.00,,,-99.99,,2013-01-10 09:22:00,
2013-01-10 01:32:00,42.0,31.0,29.87,North,10,5.0,-999.0,65,0.00,,,-99.99,,2013-01-10 09:32:00,
2013-01-10 01:42:00,42.0,31.0,29.87,North,10,5.0,-999.0,65,0.00,,,-99.99,,2013-01-10 09:42:00,
2013-01-10 01:52:00,42.0,31.0,29.87,North,10,5.0,-999.0,65,0.00,,,-99.99,,2013-01-10 09:52:00,
2013-01-10 02:22:00,39.0,32.0,29.86,West,280,4.0,-999.0,77,0.00,,,-99.99,,2013-01-10 10:22:00,
2013-01-10 02:32:00,39.0,32.0,29.86,West,280,4.0,-999.0,77,0.00,,,-99.99,,2013-01-10 10:32:00,
2013-01-10 02:42:00,39.0,32.0,29.86,West,280,4.0,-999.0,77,0.00,,,-99.99,,2013-01-10 10:42:00,
2013-01-10 02:52:00,39.0,32.0,29.86,West,280,4.0,-999.0,77,0.00,,,-99.99,,2013-01-10 10:52:00,
2013-01-10 03:22:00,36.0,33.0,29.83,SW,230,1.0,-999.0,89,0.00,,,-99.99,,2013-01-10 11:22:00,
2013-01-10 03:32:00,36.0,33.0,29.83,SW,230,1.0,-999.0,89,0.00,,,-99.99,,2013-01-10 11:32:00,
2013-01-10 03:42:00,36.0,33.0,29.83,SW,230,1.0,-999.0,89,0.00,,,-99.99,,2013-01-10 11:42:00,
2013-01-10 03:52:00,36.0,33.0,29.83,SW,230,1.0,-999.0,89,0.00,,,-99.99,,2013-01-10 11:52:00,
2013-01-10 04:22:00,35.0,34.0,29.81,South,170,9.0,-999.0,95,0.01,,,-99.99,,2013-01-10 12:22:00,
2013-01-10 04:32:00,35.0,34.0,29.81,South,170,9.0,-999.0,95,0.01,,,-99.99,,2013-01-10 12:32:00,
2013-01-10 04:42:00,35.0,34.0,29.81,South,170,9.0,-999.0,95,0.01,,,-99.99,,2013-01-10 12:42:00,
2013-01-10 04:52:00,35.0,34.0,29.81,South,170,9.0,-999.0,95,0.01,,,-99.99,,2013-01-10 12:52:00,
2013-01-10 05:22:00,35.0,34.0,29.79,South,190,9.0,-999.0,97,0.00,,,-99.99,,2013-01-10 13:22:00,
2013-01-10 05:32:00,35.0,34.0,29.79,South,190,9.0,-999.0,97,0.00,,,-99.99,,2013-01-10 13:32:00,
2013-01-10 05:42:00,35.0,34.0,29.79,South,190,9.0,-999.0,97,0.00,,,-99.99,,2013-01-10 13:42:00,
2013-01-10 05:52:00,35.0,34.0,29.79,South,190,9.0,-999.0,97,0.00,,,-99.99,,2013-01-10 13:52:00,
2013-01-10 06:22:00,35.0,34.0,29.78,WSW,240,9.0,-999.0,97,0.01,,,-99.99,,2013-01-10 14:22:00,
2013-01-10 06:32:00,35.0,34.0,29.78,WSW,240,9.0,-999.0,97,0.01,,,-99.99,,2013-01-10 14:32:00,
2013-01-10 06:43:00,35.0,34.0,29.78,WSW,240,9.0,-999.0,97,0.01,,,-99.99,,2013-01-10 14:43:00,
2013-01-10 06:52:00,35.0,34.0,29.78,WSW,240,9.0,-999.0,97,0.01,,,-99.99,,2013-01-10 14:52:00,
2013-01-10 07:22:00,35.0,34.0,29.79,SE,140,13.0,-999.0,98,0.03,,,-99.99,,2013-01-10 15:22:00,
2013-01-10 07:32:00,35.0,34.0,29.79,SE,140,13.0,-999.0,98,0.03,,,-99.99,,2013-01-10 15:32:00,
2013-01-10 07:43:00,35.0,34.0,29.79,SE,140,13.0,-999.0,98,0.03,,,-99.99,,2013-01-10 15:43:00,
2013-01-10 07:53:00,35.0,34.0,29.79,SE,140,13.0,-999.0,98,0.03,,,-99.99,,2013-01-10 15:53:00,
2013-01-10 08:22:00,35.0,34.0,29.78,ESE,110,1.0,-999.0,98,0.04,,,-99.99,,2013-01-10 16:22:00,
2013-01-10 08:33:00,35.0,34.0,29.78,ESE,110,1.0,-999.0,98,0.04,,,-99.99,,2013-01-10 16:33:00,
2013-01-10 08:42:00,35.0,34.0,29.78,ESE,110,1.0,-999.0,98,0.04,,,-99.99,,2013-01-10 16:42:00,
2013-01-10 08:52:00,35.0,34.0,29.78,ESE,110,1.0,-999.0,98,0.04,,,-99.99,,2013-01-10 16:52:00,
2013-01-10 09:33:00,34.0,34.0,29.79,SSE,160,3.0,-999.0,98,0.01,,,-99.99,,2013-01-10 17:33:00,
2013-01-10 09:42:00,34.0,34.0,29.79,SSE,160,3.0,-999.0,98,0.01,,,-99.99,,2013-01-10 17:42:00,
2013-01-10 09:53:00,34.0,34.0,29.79,SSE,160,3.0,-999.0,98,0.01,,,-99.99,,2013-01-10 17:53:00,
2013-01-10 10:23:00,32.0,32.0,29.80,SSW,210,9.0,-999.0,98,0.00,,,-99.99,,2013-01-10 18:23:00,
2013-01-10 10:33:00,32.0,32.0,29.80,SSW,210,9.0,-999.0,98,0.00,,,-99.99,,2013-01-10 18:33:00,
2013-01-10 10:43:00,32.0,32.0,29.80,SSW,210,9.0,-999.0,98,0.00,,,-99.99,,2013-01-10 18:43:00,
2013-01-10 10:52:00,32.0,32.0,29.80,SSW,210,9.0,-999.0,98,0.00,,,-99.99,,2013-01-10 18:52:00,
2013-01-10 11:23:00,30.0,29.0,29.80,North,0,0.0,-999.0,98,0.11,,,-99.99,,2013-01-10 19:23:00,
2013-01-10 11:32:00,30.0,29.0,29.80,North,0,0.0,-999.0,98,0.11,,,-99.99,,2013-01-10 19:32:00,
2013-01-10 11:43:00,30.0,29.0,29.80,North,0,0.0,-999.0,98,0.11,,,-99.99,,2013-01-10 19:43:00,
2013-01-10 11:52:00,30.0,29.0,29.80,North,0,0.0,-999.0,98,0.11,,,-99.99,,2013-01-10 19:52:00,
2013-01-10 12:23:00,27.0,27.0,29.78,North,0,0.0,-999.0,98,0.06,,,-99.99,,2013-01-10 20:23:00,
2013-01-10 12:32:00,27.0,27.0,29.78,North,0,0.0,-999.0,98,0.06,,,-99.99,,2013-01-10 20:32:00,
2013-01-10 12:42:00,27.0,27.0,29.78,North,0,0.0,-999.0,98,0.06,,,-99.99,,2013-01-10 20:42:00,
2013-01-10 12:53:00,27.0,27.0,29.78,North,0,0.0,-999.0,98,0.06,,,-99.99,,2013-01-10 20:53:00,
2013-01-10 13:23:00,27.0,26.0,29.79,SW,230,5.0,-999.0,97,0.01,,,-99.99,,2013-01-10 21:23:00,
2013-01-10 13:33:00,27.0,26.0,29.79,SW,230,5.0,-999.0,97,0.01,,,-99.99,,2013-01-10 21:33:00,
2013-01-10 13:42:00,27.0,26.0,29.79,SW,230,5.0,-999.0,97,0.01,,,-99.99,,2013-01-10 21:42:00,
2013-01-10 13:52:00,27.0,26.0,29.79,SW,230,5.0,-999.0,97,0.01,,,-99.99,,2013-01-10 21:52:00,
2013-01-10 14:25:00,26.0,25.0,29.82,North,0,0.0,-999.0,97,0.07,,,-99.99,,2013-01-10 22:25:00,
2013-01-10 14:32:00,26.0,25.0,29.82,North,0,0.0,-999.0,97,0.07,,,-99.99,,2013-01-10 22:32:00,
2013-01-10 14:43:00,26.0,25.0,29.82,North,0,0.0,-999.0,97,0.07,,,-99.99,,2013-01-10 22:43:00,
2013-01-10 15:22:00,27.0,26.0,29.84,North,0,0.0,-999.0,94,0.10,,,-99.99,,2013-01-10 23:22:00,
2013-01-10 15:33:00,27.0,26.0,29.84,North,0,0.0,-999.0,94,0.10,,,-99.99,,2013-01-10 23:33:00,
2013-01-10 15:42:00,27.0,26.0,29.84,North,0,0.0,-999.0,94,0.10,,,-99.99,,2013-01-10 23:42:00,
2013-01-10 15:52:00,27.0,26.0,29.84,North,0,0.0,-999.0,94,0.10,,,-99.99,,2013-01-10 23:52:00,
2013-01-10 16:23:00,27.0,23.0,29.86,North,0,0.0,-999.0,83,0.01,,,-99.99,,2013-01-11 00:23:00,
2013-01-10 16:33:00,27.0,23.0,29.86,North,0,0.0,-999.0,83,0.01,,,-99.99,,2013-01-11 00:33:00,
2013-01-10 16:42:00,27.0,23.0,29.86,North,0,0.0,-999.0,83,0.01,,,-99.99,,2013-01-11 00:42:00,
2013-01-10 16:52:00,27.0,23.0,29.86,North,0,0.0,-999.0,83,0.01,,,-99.99,,2013-01-11 00:52:00,
2013-01-10 17:22:00,25.0,21.0,29.87,North,0,0.0,-999.0,85,0.00,,,-99.99,,2013-01-11 01:22:00,
2013-01-10 17:33:00,25.0,21.0,29.87,North,0,0.0,-999.0,85,0.00,,,-99.99,,2013-01-11 01:33:00,
2013-01-10 17:42:00,25.0,21.0,29.87,North,0,0.0,-999.0,85,0.00,,,-99.99,,2013-01-11 01:42:00,
2013-01-10 17:52:00,25.0,21.0,29.87,North,0,0.0,-999.0,85,0.00,,,-99.99,,2013-01-11 01:52:00,
2013-01-10 18:43:00,24.0,18.0,29.89,North,0,0.0,-999.0,78,0.00,,,-99.99,,2013-01-11 02:43:00,
2013-01-10 18:53:00,24.0,18.0,29.89,North,0,0.0,-999.0,78,0.00,,,-99.99,,2013-01-11 02:53:00,
2013-01-10 19:22:00,22.0,17.0,29.92,SW,230,4.0,-999.0,80,0.00,,,-99.99,,2013-01-11 03:22:00,
2013-01-10 19:33:00,22.0,17.0,29.92,SW,230,4.0,-999.0,80,0.00,,,-99.99,,2013-01-11 03:33:00,
2013-01-10 19:42:00,22.0,17.0,29.92,SW,230,4.0,-999.0,80,0.00,,,-99.99,,2013-01-11 03:42:00,
2013-01-10 19:52:00,22.0,17.0,29.92,SW,230,4.0,-999.0,80,0.00,,,-99.99,,2013-01-11 03:52:00,
2013-01-10 20:22:00,23.0,18.0,29.94,SW,230,1.0,-999.0,80,0.00,,,-99.99,,2013-01-11 04:22:00,
2013-01-10 20:32:00,23.0,18.0,29.94,SW,230,1.0,-999.0,80,0.00,,,-99.99,,2013-01-11 04:32:00,
2013-01-10 20:42:00,23.0,18.0,29.94,SW,230,1.0,-999.0,80,0.00,,,-99.99,,2013-01-11 04:42:00,
2013-01-10 20:52:00,23.0,18.0,29.94,SW,230,1.0,-999.0,80,0.00,,,-99.99,,2013-01-11 04:52:00,
2013-01-10 21:22:00,22.0,17.0,29.97,North,0,0.0,-999.0,82,0.00,,,-99.99,,2013-01-11 05:22:00,
2013-01-10 21:33:00,22.0,17.0,29.97,North,0,0.0,-999.0,82,0.00,,,-99.99,,2013-01-11 05:33:00,
2013-01-10 21:42:00,22.0,17.0,29.97,North,0,0.0,-999.0,82,0.00,,,-99.99,,2013-01-11 05:42:00,
2013-01-10 21:52:00,22.0,17.0,29.97,North,0,0.0,-999.0,82,0.00,,,-99.99,,2013-01-11 05:52:00,
2013-01-10 22:22:00,23.0,18.0,30.00,North,0,0.0,-999.0,82,0.00,,,-99.99,,2013-01-11 06:22:00,
2013-01-10 22:32:00,23.0,18.0,30.00,North,0,0.0,-999.0,82,0.00,,,-99.99,,2013-01-11 06:32:00,
2013-01-10 22:42:00,23.0,18.0,30.00,North,0,0.0,-999.0,82,0.00,,,-99.99,,2013-01-11 06:42:00,
2013-01-10 22:52:00,23.0,18.0,30.00,North,0,0.0,-999.0,82,0.00,,,-99.99,,2013-01-11 06:52:00,
2013-01-10 23:22:00,23.0,18.0,30.03,North,0,0.0,-999.0,82,0.00,,,-99.99,,2013-01-11 07:22:00,
2013-01-10 23:32:00,23.0,18.0,30.03,North,0,0.0,-999.0,82,0.00,,,-99.99,,2013-01-11 07:32:00,
2013-01-10 23:42:00,23.0,18.0,30.03,North,0,0.0,-999.0,82,0.00,,,-99.99,,2013-01-11 07:42:00,
2013-01-10 23:52:00,23.0,18.0,30.03,North,0,0.0,-999.0,82,0.00,,,-99.99,,2013-01-11 07:52:00,